Location: Brno
(49.2000°N, 16.6330°E)
Time: 21:28:41
(UTC+01:00)

BREEZE M DEB (TANK) - Visible Passes

Search period start: 28 November 2014 00:00
Search period end: 08 December 2014 00:00
Orbit: 308 x 12174 km, 49.5° (Epoch: 26 November)

Date Brightness Start Highest point End Pass type
(mag) Time Alt. Az. Time Alt. Az. Time Alt. Az.
28 Nov 5.8 15:41:58 10° WSW 16:33:28 83° SSE 16:43:14 10° ENE visible
28 Nov 5.1 20:27:55 10° WNW 20:38:49 42° W 20:38:49 42° W visible
29 Nov 4.6 19:55:07 10° WNW 20:09:40 58° WSW 20:09:40 58° WSW visible
30 Nov 4.1 19:21:51 10° WNW 19:40:29 76° SSW 19:40:29 76° SSW visible
01 Dec 4.1 18:47:59 10° W 19:10:01 83° SSW 19:11:17 66° SE visible
02 Dec 4.3 18:13:27 10° W 18:39:23 88° SSW 18:42:04 47° ESE visible
03 Dec 4.7 17:38:10 10° W 18:08:36 90° N 18:12:50 32° E visible
04 Dec 5.1 17:02:07 10° W 17:37:41 89° N 17:43:34 21° E visible
04 Dec 6.3 21:36:03 10° WNW 21:38:42 14° W 21:38:42 14° W visible
05 Dec 5.5 16:25:19 10° W 17:06:38 89° N 17:14:18 13° E visible
05 Dec 5.9 21:03:25 10° WNW 21:09:25 21° W 21:09:25 21° W visible
06 Dec 5.7 15:47:56 10° WSW 16:35:26 90° N 16:44:26 10° E visible
06 Dec 5.4 20:30:49 10° WNW 20:40:08 30° WSW 20:40:08 30° WSW visible
07 Dec 4.9 19:58:01 10° WNW 20:10:49 42° WSW 20:10:49 42° WSW visible
